Total_Precipitation_Accumulation
2.32 2.75 3.46 4.48 5.01 5.66 5.53 5.10 4.81 4.60 4.54 4.48 4.47 4.45 4.52 4.67 4.77 4.67 4.45 4.40 4.31 4.43 4.67 4.47 4.41 4.18 4.10 4.15 4.14 4.00 3.89 3.71 3.60 3.49 3.12 2.62 2.21 2.01 1.89 1.92 2.00 1.97 1.89
2.51 3.16 3.69 4.30 4.69 4.81 4.98 5.22 5.19 5.11 4.84 4.76 5.02 5.41 5.64 5.51 5.52 5.44 5.39 5.21 5.05 5.03 4.96 4.92 4.57 4.36 4.24 4.09 3.99 3.89 3.79 3.56 3.52 3.58 3.51 3.05 2.67 2.17 1.73 1.84 1.88 1.87 1.90
2.22 2.91 3.44 3.87 4.40 4.74 4.81 5.09 5.15 5.31 5.54 5.70 5.80 6.13 6.39 6.21 5.98 5.61 5.43 5.19 4.93 4.87 4.76 4.68 4.47 4.34 4.14 3.98 3.93 3.86 3.79 3.61 3.53 3.56 3.72 3.49 2.95 2.41 2.01 1.83 1.80 1.83 1.87
2.12 2.49 2.94 3.25 3.66 4.01 4.34 4.74 4.92 5.10 5.66 6.38 6.62 6.63 6.70 6.53 6.17 5.83 5.49 5.14 4.84 4.58 4.40 4.44 4.36 4.22 3.98 3.82 3.52 3.52 3.61 3.75 3.54 3.41 3.19 3.03 2.78 2.66 2.44 2.17 1.99 1.86 1.81
2.04 2.22 2.35 2.72 3.26 3.51 3.77 4.28 4.70 5.15 5.77 6.31 6.66 6.85 6.73 6.46 6.14 5.67 5.31 4.97 4.61 4.24 3.96 3.97 3.91 3.72 3.51 3.39 3.21 3.18 3.24 3.33 3.31 3.28 3.14 3.01 2.81 2.57 2.50 2.37 2.15 2.02 1.85
1.89 2.01 2.21 2.45 2.77 3.11 3.40 3.72 4.29 4.96 5.39 5.75 6.10 6.25 6.32 6.19 5.86 5.36 5.04 4.70 4.35 4.01 3.70 3.37 3.32 3.27 3.11 2.92 2.86 2.84 2.81 2.89 2.95 3.02 2.93 2.80 2.71 2.61 2.61 2.47 2.28 2.18 2.02
1.77 2.05 2.21 2.43 2.67 2.96 3.32 3.65 4.04 4.58 4.89 4.99 5.16 5.44 5.61 5.61 5.47 5.22 4.87 4.44 3.96 3.50 3.23 2.99 2.88 2.82 2.76 2.64 2.56 2.56 2.44 2.38 2.46 2.45 2.55 2.57 2.45 2.34 2.43 2.52 2.40 2.20 2.07
1.99 2.09 2.15 2.34 2.65 2.84 3.00 3.38 3.62 4.13 4.41 4.30 4.40 4.69 4.92 4.87 4.71 4.48 4.02 3.59 3.23 2.95 2.73 2.63 2.41 2.21 2.09 2.04 2.14 2.19 2.14 2.10 2.08 2.02 2.23 2.31 2.23 2.19 2.22 2.30 2.49 2.44 2.22
2.05 2.13 2.04 2.14 2.37 2.62 2.80 2.97 3.15 3.52 3.79 3.76 3.80 3.84 3.85 3.83 3.73 3.52 3.18 2.81 2.56 2.34 2.27 2.16 2.09 1.99 1.88 1.83 1.84 1.88 1.96 1.96 1.88 1.88 2.00 2.00 1.94 1.95 1.99 2.10 2.29 2.53 2.45
1.83 1.92 1.98 2.07 1.99 2.07 2.38 2.63 2.71 2.87 3.02 3.02 3.02 3.00 3.06 3.11 3.01 2.73 2.39 2.23 2.16 2.02 1.90 1.83 1.80 1.81 1.76 1.73 1.80 1.76 1.81 1.89 1.79 1.75 1.73 1.69 1.65 1.77 1.78 1.87 1.99 2.18 2.37
1.71 1.82 1.92 1.97 1.85 1.77 1.88 2.12 2.35 2.46 2.59 2.68 2.71 2.58 2.51 2.42 2.35 2.21 1.98 1.94 1.90 1.79 1.68 1.61 1.57 1.55 1.58 1.59 1.62 1.56 1.52 1.51 1.47 1.39 1.36 1.38 1.47 1.62 1.63 1.66 1.79 2.00 2.20
1.87 1.91 2.08 2.01 1.87 1.88 1.89 1.91 2.03 2.17 2.27 2.34 2.43 2.46 2.34 2.12 2.01 1.91 1.81 1.71 1.64 1.60 1.56 1.45 1.41 1.38 1.32 1.30 1.28 1.29 1.31 1.30 1.28 1.28 1.32 1.32 1.39 1.52 1.55 1.62 1.68 1.84 2.09
2.20 2.16 2.20 2.12 1.99 1.93 1.82 1.72 1.79 1.91 2.00 2.11 2.14 2.09 2.02 1.89 1.78 1.75 1.73 1.60 1.52 1.45 1.39 1.35 1.32 1.28 1.28 1.19 1.12 1.13 1.20 1.18 1.15 1.20 1.27 1.34 1.56 1.59 1.57 1.63 1.67 1.76 1.89
2.36 2.31 2.29 2.26 2.16 2.04 1.86 1.72 1.69 1.67 1.63 1.75 1.86 1.85 1.81 1.76 1.67 1.56 1.52 1.49 1.46 1.40 1.35 1.34 1.25 1.20 1.19 1.18 1.13 1.10 1.15 1.16 1.14 1.19 1.26 1.34 1.52 1.60 1.67 1.66 1.72 1.78 1.93
2.45 2.40 2.44 2.37 2.33 2.29 2.13 1.98 1.82 1.68 1.62 1.59 1.56 1.64 1.75 1.74 1.67 1.59 1.52 1.48 1.39 1.28 1.29 1.28 1.22 1.20 1.17 1.10 1.10 1.09 1.12 1.19 1.20 1.14 1.15 1.21 1.31 1.44 1.44 1.35 1.47 1.68 1.93
2.49 2.54 2.68 2.63 2.57 2.53 2.35 2.19 2.02 1.76 1.62 1.59 1.56 1.59 1.66 1.65 1.58 1.54 1.47 1.42 1.37 1.34 1.31 1.27 1.22 1.15 0.93 1.02 1.06 1.05 1.12 1.19 1.18 1.14 1.13 1.09 1.06 1.04 1.05 1.10 1.18 1.37 1.66
2.78 2.82 2.76 2.74 2.68 2.60 2.61 2.60 2.32 2.01 1.86 1.73 1.61 1.59 1.56 1.51 1.47 1.36 1.33 1.39 1.41 1.37 1.29 1.23 1.22 1.15 1.03 1.02 0.97 1.00 1.11 1.22 1.28 1.32 1.28 1.00 0.86 0.98 1.00 1.05 1.12 1.25 1.43
2.65 2.72 2.66 2.67 2.63 2.54 2.51 2.51 2.42 2.18 1.89 1.76 1.61 1.51 1.50 1.46 1.46 1.43 1.39 1.43 1.45 1.38 1.35 1.31 1.27 1.26 1.11 1.03 0.95 1.00 1.06 1.20 1.22 1.22 1.24 1.23 1.12 1.04 1.12 1.18 1.25 1.35 1.47
2.49 2.56 2.66 2.69 2.68 2.57 2.39 2.31 2.22 2.13 2.00 1.77 1.55 1.42 1.43 1.40 1.39 1.40 1.40 1.41 1.42 1.35 1.30 1.28 1.30 1.35 1.27 1.12 1.00 0.93 0.95 1.08 1.11 1.08 1.07 1.04 1.07 1.17 1.33 1.43 1.63 1.73 1.82
2.45 2.55 2.66 2.73 2.71 2.65 2.33 2.18 2.07 1.93 1.77 1.55 1.41 1.35 1.37 1.31 1.27 1.32 1.36 1.39 1.40 1.34 1.30 1.27 1.31 1.29 1.19 1.02 0.87 0.84 0.84 0.99 1.05 1.12 1.09 0.98 0.93 1.09 1.27 1.48 1.80 1.95 2.02
2.41 2.50 2.53 2.56 2.51 2.49 2.26 2.13 1.94 1.79 1.50 1.28 1.25 1.29 1.29 1.23 1.17 1.21 1.25 1.32 1.30 1.30 1.31 1.22 1.21 1.14 1.00 0.91 0.80 0.77 0.77 0.88 1.02 1.07 1.11 1.07 0.99 1.05 1.28 1.50 1.71 1.87 1.93
2.25 2.33 2.38 2.36 2.25 2.16 2.08 1.96 1.79 1.52 1.33 1.21 1.18 1.25 1.31 1.14 1.03 1.11 1.10 1.14 1.29 1.25 1.23 1.24 1.14 1.00 0.94 0.81 0.74 0.73 0.71 0.76 0.96 1.14 1.12 1.14 1.13 1.15 1.35 1.49 1.73 1.94 2.02
2.01 2.06 1.98 1.87 1.88 1.83 1.79 1.72 1.54 1.33 1.21 1.23 1.29 1.29 1.26 1.19 1.15 1.15 1.10 1.14 1.22 1.22 1.14 1.13 1.06 0.93 0.90 0.82 0.75 0.74 0.77 0.81 0.90 1.07 1.15 1.16 1.16 1.25 1.51 1.68 1.87 2.05 2.14
1.65 1.73 1.71 1.64 1.60 1.53 1.46 1.40 1.27 1.23 1.22 1.25 1.33 1.41 1.31 1.17 1.16 1.19 1.08 1.07 1.08 1.10 1.07 1.04 1.03 0.97 0.92 0.82 0.75 0.78 0.83 0.88 0.90 1.00 1.16 1.27 1.31 1.42 1.69 1.90 2.09 2.17 2.11
1.36 1.39 1.51 1.53 1.40 1.29 1.25 1.20 1.11 1.11 1.24 1.29 1.25 1.29 1.21 1.17 1.18 1.14 0.99 0.92 0.87 0.92 1.00 1.00 0.99 0.97 0.91 0.84 0.85 0.81 0.78 0.80 0.82 0.93 1.11 1.29 1.42 1.57 1.76 1.95 2.01 2.01 1.93
1.23 1.29 1.36 1.33 1.26 1.18 1.12 1.06 0.99 1.02 1.17 1.24 1.20 1.12 1.08 1.09 1.05 1.10 1.05 0.95 0.89 0.87 0.83 0.86 0.82 0.78 0.84 0.84 0.80 0.76 0.77 0.79 0.85 0.92 1.14 1.31 1.40 1.57 1.75 1.90 1.90 1.83 1.74